GJS1027 KEWR-KSAV

Flight info

Callsign GJS1027
Flight time N/A
Altitude 38000
Route ELVAE NECCK WHITE Q409 SESUE SOOOP
Aircraft CRJ7/M-SDFGIRWY/S

Departure

Time 2026-04-21 22:29
Airport Newark Liberty International Airport (KEWR)

Arrival

Time N/A
Airport Savannah Hilton Head International Airport (KSAV)
Time Latitude Longitude Altitude Speed Heading
2026-04-21 22:16 40.69340 -74.17228 20 ft 0 kts 12°
2026-04-21 22:18 40.69339 -74.17228 20 ft 0 kts 12°
2026-04-21 22:18 40.69340 -74.17228 20 ft 0 kts 12°
2026-04-21 22:20 40.69326 -74.17232 22 ft 4 kts 12°
2026-04-21 22:20 40.69307 -74.17237 20 ft 0 kts 12°
2026-04-21 22:23 40.69308 -74.17237 20 ft 1 kts 12°
2026-04-21 22:23 40.69310 -74.17236 20 ft 0 kts 12°
2026-04-21 22:25 40.69311 -74.17235 20 ft 0 kts 41°
2026-04-21 22:25 40.69313 -74.17210 20 ft 5 kts 109°
2026-04-21 22:25 40.69274 -74.17198 20 ft 12 kts 183°
2026-04-21 22:26 40.69232 -74.17127 20 ft 18 kts 112°
2026-04-21 22:26 40.69238 -74.17023 20 ft 5 kts 31°
2026-04-21 22:26 40.69271 -74.17003 20 ft 11 kts 25°
2026-04-21 22:26 40.69394 -74.16926 21 ft 22 kts 25°
2026-04-21 22:27 40.69534 -74.16837 20 ft 23 kts 26°
2026-04-21 22:27 40.69680 -74.16744 20 ft 24 kts 26°
2026-04-21 22:27 40.69834 -74.16645 19 ft 25 kts 26°
2026-04-21 22:27 40.69991 -74.16545 19 ft 25 kts 26°
2026-04-21 22:28 40.70065 -74.16475 20 ft 4 kts 85°
2026-04-21 22:28 40.70065 -74.16474 19 ft 0 kts 88°
2026-04-21 22:28 40.70065 -74.16468 19 ft 5 kts 91°
2026-04-21 22:28 40.69999 -74.16382 17 ft 24 kts 190°
2026-04-21 22:29 40.69672 -74.16576 20 ft 87 kts 207°
2026-04-21 22:29 40.68918 -74.17070 33 ft 150 kts 204°
2026-04-21 22:29 40.67917 -74.17728 589 ft 167 kts 200°
2026-04-21 22:29 40.66787 -74.18051 1449 ft 171 kts 179°
2026-04-21 22:30 40.65468 -74.17974 1965 ft 205 kts 178°
2026-04-21 22:30 40.63989 -74.17879 2510 ft 224 kts 184°
2026-04-21 22:30 40.62424 -74.18370 3037 ft 241 kts 206°
2026-04-21 22:30 40.60995 -74.19475 4051 ft 238 kts 213°
2026-04-21 22:31 40.59622 -74.20636 5032 ft 237 kts 218°
2026-04-21 22:31 40.58460 -74.22236 5583 ft 250 kts 231°
2026-04-21 22:31 40.57247 -74.24046 5855 ft 277 kts 230°
2026-04-21 22:31 40.55902 -74.25940 5961 ft 281 kts 226°
2026-04-21 22:32 40.54192 -74.27160 5975 ft 287 kts 194°
2026-04-21 22:32 40.52207 -74.26976 6000 ft 292 kts 164°
2026-04-21 22:32 40.50314 -74.25952 6149 ft 298 kts 158°
2026-04-21 22:32 40.48426 -74.24814 6967 ft 303 kts 158°
2026-04-21 22:33 40.46484 -74.23648 7628 ft 312 kts 159°
2026-04-21 22:33 40.44460 -74.22523 8309 ft 319 kts 161°
2026-04-21 22:33 40.42365 -74.21466 9022 ft 326 kts 163°
2026-04-21 22:33 40.40242 -74.20446 9719 ft 334 kts 163°
2026-04-21 22:34 40.38038 -74.19372 10406 ft 341 kts 163°
2026-04-21 22:34 40.35798 -74.18272 11080 ft 346 kts 163°
2026-04-21 22:34 40.33531 -74.17156 11790 ft 350 kts 163°
2026-04-21 22:34 40.31219 -74.16136 12454 ft 350 kts 174°
2026-04-21 22:35 40.28838 -74.16215 13055 ft 343 kts 199°
2026-04-21 22:35 40.26510 -74.17082 13338 ft 355 kts 205°
2026-04-21 22:35 40.24119 -74.18057 13867 ft 363 kts 204°
2026-04-21 22:35 40.21662 -74.18961 14489 ft 369 kts 201°
2026-04-21 22:36 40.16616 -74.20479 15619 ft 379 kts 199°
2026-04-21 22:36 40.14028 -74.21246 16180 ft 383 kts 199°
2026-04-21 22:36 40.11415 -74.22031 16721 ft 387 kts 199°
2026-04-21 22:37 40.08775 -74.22823 17277 ft 392 kts 199°
2026-04-21 22:37 40.06102 -74.23621 17824 ft 396 kts 199°
2026-04-21 22:37 40.03408 -74.24432 18343 ft 399 kts 199°
2026-04-21 22:37 40.00719 -74.25346 18822 ft 397 kts 208°
2026-04-21 22:38 39.98338 -74.27063 19283 ft 388 kts 222°
2026-04-21 22:38 39.96187 -74.29174 19759 ft 387 kts 226°
2026-04-21 22:38 39.94103 -74.31332 20212 ft 390 kts 226°
2026-04-21 22:38 39.91964 -74.33519 20664 ft 393 kts 225°
2026-04-21 22:39 39.89758 -74.35662 21114 ft 397 kts 224°
2026-04-21 22:39 39.87520 -74.37782 21602 ft 398 kts 224°
2026-04-21 22:39 39.85272 -74.39914 22041 ft 401 kts 224°
2026-04-21 22:39 39.83017 -74.42067 22384 ft 405 kts 224°
2026-04-21 22:40 39.80792 -74.44313 22775 ft 403 kts 229°
2026-04-21 22:40 39.78784 -74.46841 23181 ft 401 kts 234°
2026-04-21 22:40 39.76881 -74.49505 23576 ft 403 kts 234°
2026-04-21 22:40 39.75000 -74.52155 23925 ft 406 kts 234°
2026-04-21 22:41 39.73042 -74.54815 24256 ft 409 kts 233°
2026-04-21 22:41 39.71038 -74.57456 24577 ft 411 kts 233°
2026-04-21 22:41 39.69029 -74.60113 24884 ft 413 kts 233°
2026-04-21 22:41 39.67017 -74.62783 25190 ft 415 kts 233°
2026-04-21 22:42 39.64989 -74.65465 25486 ft 417 kts 233°
2026-04-21 22:42 39.62952 -74.68153 25774 ft 419 kts 233°
2026-04-21 22:42 39.60905 -74.70852 26054 ft 421 kts 233°
2026-04-21 22:42 39.58844 -74.73566 26343 ft 423 kts 233°
2026-04-21 22:43 39.56805 -74.76251 26610 ft 425 kts 232°
2026-04-21 22:43 39.54728 -74.78983 26873 ft 426 kts 232°
2026-04-21 22:43 39.52640 -74.81725 27132 ft 428 kts 233°
2026-04-21 22:43 39.50547 -74.84471 27371 ft 430 kts 232°
2026-04-21 22:44 39.48443 -74.87232 27625 ft 432 kts 232°
2026-04-21 22:44 39.46327 -74.90004 27855 ft 433 kts 232°
2026-04-21 22:44 39.44206 -74.92780 28084 ft 435 kts 232°
2026-04-21 22:44 39.42077 -74.95566 28316 ft 437 kts 232°
2026-04-21 22:45 39.39937 -74.98362 28544 ft 438 kts 232°
2026-04-21 22:45 39.37786 -75.01170 28756 ft 440 kts 232°
2026-04-21 22:45 39.35662 -75.03940 28982 ft 441 kts 232°
2026-04-21 22:45 39.33498 -75.06757 29180 ft 442 kts 232°
2026-04-21 22:46 39.31330 -75.09577 29430 ft 443 kts 232°
2026-04-21 22:46 39.29110 -75.12355 29607 ft 446 kts 230°
2026-04-21 22:46 39.26812 -75.15061 29779 ft 449 kts 229°
2026-04-21 22:46 39.24477 -75.17744 29965 ft 450 kts 229°
2026-04-21 22:47 39.19793 -75.23223 29994 ft 459 kts 229°
2026-04-21 22:47 39.06934 -75.38223 30433 ft 472 kts 229°
2026-04-21 22:48 39.03729 -75.41717 30630 ft 480 kts 219°
2026-04-21 22:48 39.00690 -75.43602 30780 ft 492 kts 205°
2026-04-21 22:48 38.97384 -75.44802 31002 ft 495 kts 198°
2026-04-21 22:48 38.93968 -75.45506 31153 ft 500 kts 191°